Aérodrome :
LOGIN :

S'inscrire | Disclaimer

   EN    FR    IT 

 










Légende :    VFR   VFR Marginal   IFR   IFR Intensif   IFR Très Intensif
Visi : 
Plafond : 
>= 8 km
>= 3000ft
5 à 8 km
1000 à 3000 ft
1500m à 5 km
500 à 1000 ft
800 à 1500m
200 à 500 ft
< 800m
< 200 ft
Symboles :   Orages  Brouillard  Fortes neiges  Fortes précipitations  Vent > 20 kt
SIGMETs :   Divers  Orages  Givrage  Turbulence  Onde Orograph.  Cendres Volcan.







- Altitude de l'aérodrome : 1325 ft
- Code IATA : EBU
- Voir les cartes d'approche


LFMH - St-Etienne Boutheon

DERNIER METAR :
  • 170130Z AUTO 18004KT 150V210 CAVOK 13/02 Q1025

METARs EXPIRÉS :
  • 170100Z AUTO 16007KT CAVOK 11/03 Q1025
  • 170030Z AUTO 16009KT CAVOK 11/03 Q1025
  • 170000Z AUTO 15010KT CAVOK 15/04 Q1025
  • 162330Z AUTO 16008KT CAVOK 12/05 Q1025
  • 162300Z AUTO 18007KT CAVOK 14/05 Q1025

TAF TAF LFMH
Valide du 16 à 15h jusqu'au 17 à 15h UTC


161400Z 1615/1715 16005KT CAVOK
TEMPO 1615/1618 17015KT
TEMPO 1712/1715 18015G25KT
ATIS : +33 4 77 36 17 51
Pas de NOTAMs connus pour ce terrain.



MET'MAP, la Météo Aéronautique d'un coup d'oeil ! - Copyright ORBIFLY Décembre 2007 - Disclaimer

ORBIFLY MET'MAP TEAM :

Programmation & Développement : Alexandra Zaïnal
Conception & Développement : Baudouin d'Aumeries
Co-Programmation & Développement : Marc-Olivier Méhu
Soutien technique & logistique : Manuel Goepfert

Contact : metmap@orbifly.com




SOURCES & CREDITS :

   NOAA